Time,TemperatureF,DewpointF,PressureIn,WindDirection,WindDirectionDegrees,WindSpeedMPH,WindSpeedGustMPH,Humidity,HourlyPrecipIn,Conditions,Clouds,dailyrainin,SoftwareType,DateUTC
2013-08-04 00:01:00,67.5,23.6,29.92,NW,315,0.0,0.0,19,0.00,,,0.00,WUHU21423XXSP,2013-08-04 04:01:00,
2013-08-04 00:06:00,67.3,23.3,29.92,NW,315,0.0,0.0,19,0.00,,,0.00,WUHU21423XXSP,2013-08-04 04:06:00,
2013-08-04 00:08:00,67.3,23.3,29.92,NW,315,0.0,0.0,19,0.00,,,0.00,WUHU21423XXSP,2013-08-04 04:08:00,
2013-08-04 00:10:00,67.3,23.3,29.91,NW,315,0.0,0.0,19,0.00,,,0.00,WUHU21423XXSP,2013-08-04 04:10:00,
2013-08-04 00:16:00,67.3,23.3,29.91,NW,315,0.0,0.0,19,0.00,,,0.00,WUHU21423XXSP,2013-08-04 04:16:00,
2013-08-04 00:23:00,67.3,23.3,29.91,NW,315,0.0,0.0,19,0.00,,,0.00,WUHU21423XXSP,2013-08-04 04:23:00,
2013-08-04 00:29:00,66.9,22.9,29.92,NNW,337,0.0,0.0,19,0.00,,,0.00,WUHU21423XXSP,2013-08-04 04:29:00,
2013-08-04 00:36:00,66.9,22.9,29.92,NNW,337,0.0,0.0,19,0.00,,,0.00,WUHU21423XXSP,2013-08-04 04:36:00,
2013-08-04 00:42:00,66.7,22.8,29.92,NNW,337,0.0,0.0,19,0.00,,,0.00,WUHU21423XXSP,2013-08-04 04:42:00,
2013-08-04 00:48:00,66.6,24.2,29.92,NW,315,0.0,0.0,20,0.00,,,0.00,WUHU21423XXSP,2013-08-04 04:48:00,
2013-08-04 00:55:00,66.6,24.2,29.92,NW,315,0.0,0.0,20,0.00,,,0.00,WUHU21423XXSP,2013-08-04 04:55:00,
2013-08-04 01:01:00,66.4,24.1,29.92,NW,315,0.0,0.0,20,0.00,,,0.00,WUHU21423XXSP,2013-08-04 05:01:00,
2013-08-04 01:08:00,66.4,24.1,29.92,NW,315,0.0,0.0,20,0.00,,,0.00,WUHU21423XXSP,2013-08-04 05:08:00,
2013-08-04 01:14:00,66.4,24.1,29.92,NW,315,0.0,0.0,20,0.00,,,0.00,WUHU21423XXSP,2013-08-04 05:14:00,
2013-08-04 01:21:00,66.2,23.9,29.91,NW,315,0.0,0.0,20,0.00,,,0.00,WUHU21423XXSP,2013-08-04 05:21:00,
2013-08-04 01:27:00,66.0,23.8,29.91,NNW,337,0.0,0.0,20,0.00,,,0.00,WUHU21423XXSP,2013-08-04 05:27:00,
2013-08-04 01:33:00,66.0,23.8,29.92,NW,315,0.0,0.0,20,0.00,,,0.00,WUHU21423XXSP,2013-08-04 05:33:00,
2013-08-04 01:40:00,66.0,23.8,29.92,NW,315,0.0,0.0,20,0.00,,,0.00,WUHU21423XXSP,2013-08-04 05:40:00,
2013-08-04 01:46:00,66.0,23.8,29.92,NW,315,0.0,0.0,20,0.00,,,0.00,WUHU21423XXSP,2013-08-04 05:46:00,
2013-08-04 01:53:00,65.8,23.6,29.92,NNW,337,0.0,0.0,20,0.00,,,0.00,WUHU21423XXSP,2013-08-04 05:53:00,
2013-08-04 01:59:00,65.7,23.5,29.92,NNW,337,0.0,0.0,20,0.00,,,0.00,WUHU21423XXSP,2013-08-04 05:59:00,
2013-08-04 02:06:00,65.7,23.5,29.92,NNW,337,0.0,0.0,20,0.00,,,0.00,WUHU21423XXSP,2013-08-04 06:06:00,
2013-08-04 02:12:00,65.8,23.6,29.91,NNW,337,0.0,0.0,20,0.00,,,0.00,WUHU21423XXSP,2013-08-04 06:12:00,
2013-08-04 02:18:00,65.7,23.5,29.91,NNW,337,0.0,0.0,20,0.00,,,0.00,WUHU21423XXSP,2013-08-04 06:18:00,
2013-08-04 02:25:00,65.3,23.2,29.91,NNW,337,0.0,0.0,20,0.00,,,0.00,WUHU21423XXSP,2013-08-04 06:25:00,
2013-08-04 02:31:00,65.1,23.2,29.91,NNW,337,0.0,0.0,20,0.00,,,0.00,WUHU21423XXSP,2013-08-04 06:31:00,
2013-08-04 02:38:00,65.1,23.0,29.91,NNW,337,0.0,0.0,20,0.00,,,0.00,WUHU21423XXSP,2013-08-04 06:38:00,
2013-08-04 02:44:00,65.1,23.0,29.91,NNW,337,0.0,0.0,20,0.00,,,0.00,WUHU21423XXSP,2013-08-04 06:44:00,
2013-08-04 02:51:00,64.9,22.9,29.91,NNW,337,0.0,0.0,20,0.00,,,0.00,WUHU21423XXSP,2013-08-04 06:51:00,
2013-08-04 02:57:00,64.8,22.7,29.91,NNW,337,0.0,0.0,20,0.00,,,0.00,WUHU21423XXSP,2013-08-04 06:57:00,
2013-08-04 03:03:00,64.6,23.6,29.90,NNW,337,0.0,0.0,21,0.00,,,0.00,WUHU21423XXSP,2013-08-04 07:03:00,
2013-08-04 03:10:00,64.6,23.6,29.90,NNW,337,0.0,0.0,21,0.00,,,0.00,WUHU21423XXSP,2013-08-04 07:10:00,
2013-08-04 03:16:00,64.6,23.6,29.90,NNW,337,0.0,0.0,21,0.00,,,0.00,WUHU21423XXSP,2013-08-04 07:16:00,
2013-08-04 03:23:00,64.2,23.3,29.90,NNW,337,0.0,0.0,21,0.00,,,0.00,WUHU21423XXSP,2013-08-04 07:23:00,
2013-08-04 03:29:00,64.2,23.3,29.90,NNW,337,0.0,0.0,21,0.00,,,0.00,WUHU21423XXSP,2013-08-04 07:29:00,
2013-08-04 03:36:00,64.4,24.4,29.90,NNW,337,0.0,0.0,22,0.00,,,0.00,WUHU21423XXSP,2013-08-04 07:36:00,
2013-08-04 03:42:00,64.6,24.6,29.90,NNW,337,0.0,0.0,22,0.00,,,0.00,WUHU21423XXSP,2013-08-04 07:42:00,
2013-08-04 03:48:00,64.2,23.3,29.90,NNW,337,0.0,0.0,21,0.00,,,0.00,WUHU21423XXSP,2013-08-04 07:48:00,
2013-08-04 03:55:00,64.0,23.3,29.89,NNW,337,0.0,0.0,21,0.00,,,0.00,WUHU21423XXSP,2013-08-04 07:55:00,
2013-08-04 04:01:00,64.2,23.3,29.90,NNW,337,0.0,0.0,21,0.00,,,0.00,WUHU21423XXSP,2013-08-04 08:01:00,
2013-08-04 04:08:00,64.2,23.3,29.90,WSW,247,0.0,0.0,21,0.00,,,0.00,WUHU21423XXSP,2013-08-04 08:08:00,
2013-08-04 04:14:00,64.0,23.1,29.90,WSW,247,0.0,0.0,21,0.00,,,0.00,WUHU21423XXSP,2013-08-04 08:14:00,
2013-08-04 04:20:00,63.9,23.0,29.91,WSW,247,0.0,0.0,21,0.00,,,0.00,WUHU21423XXSP,2013-08-04 08:20:00,
2013-08-04 04:27:00,63.7,23.0,29.90,WSW,247,0.0,0.0,21,0.00,,,0.00,WUHU21423XXSP,2013-08-04 08:27:00,
2013-08-04 04:33:00,64.0,23.1,29.91,WSW,247,0.0,0.0,21,0.00,,,0.00,WUHU21423XXSP,2013-08-04 08:33:00,
2013-08-04 04:40:00,64.2,23.3,29.90,ENE,67,0.0,0.0,21,0.00,,,0.00,WUHU21423XXSP,2013-08-04 08:40:00,
2013-08-04 04:46:00,64.4,24.4,29.90,ESE,112,0.0,0.4,22,0.00,,,0.00,WUHU21423XXSP,2013-08-04 08:46:00,
2013-08-04 04:53:00,64.2,24.4,29.91,ESE,112,0.0,0.4,21,0.00,,,0.00,WUHU21423XXSP,2013-08-04 08:53:00,
2013-08-04 04:59:00,64.2,23.3,29.91,ESE,112,0.0,0.0,21,0.00,,,0.00,WUHU21423XXSP,2013-08-04 08:59:00,
2013-08-04 05:06:00,64.6,24.6,29.90,East,90,0.0,0.0,22,0.00,,,0.00,WUHU21423XXSP,2013-08-04 09:06:00,
2013-08-04 05:12:00,64.9,24.9,29.90,ESE,112,0.0,0.0,22,0.00,,,0.00,WUHU21423XXSP,2013-08-04 09:12:00,
2013-08-04 05:18:00,65.3,24.9,29.90,ENE,67,0.0,0.0,22,0.00,,,0.00,WUHU21423XXSP,2013-08-04 09:18:00,
2013-08-04 05:24:00,65.5,25.3,29.90,ESE,112,0.0,0.0,22,0.00,,,0.00,WUHU21423XXSP,2013-08-04 09:24:00,
2013-08-04 05:31:00,65.1,24.0,29.90,ESE,112,0.0,0.0,21,0.00,,,0.00,WUHU21423XXSP,2013-08-04 09:31:00,
2013-08-04 05:38:00,64.8,23.9,29.90,East,90,0.0,0.0,21,0.00,,,0.00,WUHU21423XXSP,2013-08-04 09:38:00,
2013-08-04 05:44:00,64.6,23.6,29.91,ESE,112,0.0,0.0,21,0.00,,,0.00,WUHU21423XXSP,2013-08-04 09:44:00,
2013-08-04 05:50:00,64.2,23.3,29.91,ESE,112,0.0,0.0,21,0.00,,,0.00,WUHU21423XXSP,2013-08-04 09:50:00,
2013-08-04 05:57:00,64.2,23.3,29.91,ESE,112,0.0,0.0,21,0.00,,,0.00,WUHU21423XXSP,2013-08-04 09:57:00,
2013-08-04 06:03:00,64.2,23.3,29.91,ESE,112,0.0,0.0,21,0.00,,,0.00,WUHU21423XXSP,2013-08-04 10:03:00,
2013-08-04 06:10:00,64.0,23.3,29.91,ESE,112,0.0,0.0,21,0.00,,,0.00,WUHU21423XXSP,2013-08-04 10:10:00,
2013-08-04 06:16:00,63.7,23.0,29.91,ESE,112,0.0,0.0,21,0.00,,,0.00,WUHU21423XXSP,2013-08-04 10:16:00,
2013-08-04 06:22:00,63.5,22.7,29.92,ESE,112,0.0,0.0,21,0.00,,,0.00,WUHU21423XXSP,2013-08-04 10:22:00,
2013-08-04 06:29:00,63.3,22.6,29.91,ESE,112,0.0,0.0,21,0.00,,,0.00,WUHU21423XXSP,2013-08-04 10:29:00,
2013-08-04 06:35:00,63.1,22.6,29.91,ESE,112,0.0,0.0,21,0.00,,,0.00,WUHU21423XXSP,2013-08-04 10:35:00,
2013-08-04 06:42:00,63.3,22.6,29.92,ESE,112,0.0,0.0,21,0.00,,,0.00,WUHU21423XXSP,2013-08-04 10:42:00,
2013-08-04 06:48:00,63.7,22.9,29.92,ESE,112,0.0,0.0,21,0.00,,,0.00,WUHU21423XXSP,2013-08-04 10:48:00,
2013-08-04 06:55:00,64.0,23.1,29.93,ESE,112,0.0,0.0,21,0.00,,,0.00,WUHU21423XXSP,2013-08-04 10:55:00,
2013-08-04 07:01:00,64.2,23.3,29.92,ESE,112,0.0,0.0,21,0.00,,,0.00,WUHU21423XXSP,2013-08-04 11:01:00,
2013-08-04 07:07:00,64.2,23.3,29.93,ESE,112,0.0,0.0,21,0.00,,,0.00,WUHU21423XXSP,2013-08-04 11:07:00,
2013-08-04 07:14:00,64.6,23.6,29.93,ESE,112,0.0,0.0,21,0.00,,,0.00,WUHU21423XXSP,2013-08-04 11:14:00,
2013-08-04 07:20:00,64.6,23.6,29.93,East,90,0.0,0.0,21,0.00,,,0.00,WUHU21423XXSP,2013-08-04 11:20:00,
2013-08-04 07:27:00,65.1,24.0,29.93,SE,135,0.0,0.0,21,0.00,,,0.00,WUHU21423XXSP,2013-08-04 11:27:00,
2013-08-04 07:33:00,66.4,24.1,29.93,SE,135,0.0,0.0,20,0.00,,,0.00,WUHU21423XXSP,2013-08-04 11:33:00,
2013-08-04 07:40:00,67.6,25.2,29.93,West,270,0.0,0.0,20,0.00,,,0.00,WUHU21423XXSP,2013-08-04 11:40:00,
2013-08-04 07:46:00,68.7,26.1,29.94,West,270,0.0,0.0,20,0.00,,,0.00,WUHU21423XXSP,2013-08-04 11:46:00,
2013-08-04 07:52:00,70.0,25.2,29.94,NW,315,0.0,0.0,19,0.00,,,0.00,WUHU21423XXSP,2013-08-04 11:52:00,
2013-08-04 07:59:00,70.9,24.6,29.94,WNW,292,0.0,0.0,18,0.00,,,0.00,WUHU21423XXSP,2013-08-04 11:59:00,
2013-08-04 08:05:00,71.4,23.4,29.94,WNW,292,0.0,0.0,17,0.00,,,0.00,WUHU21423XXSP,2013-08-04 12:05:00,
2013-08-04 08:12:00,72.3,22.5,29.94,SE,135,0.0,0.0,15,0.00,,,0.00,WUHU21423XXSP,2013-08-04 12:12:00,
2013-08-04 08:18:00,72.7,17.9,29.94,ESE,112,0.0,0.0,12,0.00,,,0.00,WUHU21423XXSP,2013-08-04 12:18:00,
2013-08-04 08:25:00,72.7,13.1,29.94,NW,315,0.0,0.0,10,0.00,,,0.00,WUHU21423XXSP,2013-08-04 12:25:00,
2013-08-04 08:31:00,73.0,13.4,29.94,North,0,0.0,0.0,10,0.00,,,0.00,WUHU21423XXSP,2013-08-04 12:31:00,
2013-08-04 08:37:00,72.5,12.8,29.94,North,0,0.0,0.0,10,0.00,,,0.00,WUHU21423XXSP,2013-08-04 12:37:00,
2013-08-04 08:44:00,72.9,13.1,29.95,WSW,247,0.0,0.0,10,0.00,,,0.00,WUHU21423XXSP,2013-08-04 12:44:00,
2013-08-04 08:50:00,73.0,13.4,29.95,WSW,247,0.0,0.0,10,0.00,,,0.00,WUHU21423XXSP,2013-08-04 12:50:00,
2013-08-04 08:57:00,72.7,13.1,29.94,WSW,247,0.0,0.0,10,0.00,,,0.00,WUHU21423XXSP,2013-08-04 12:57:00,
2013-08-04 09:29:00,73.8,15.5,29.95,ENE,67,0.0,0.0,11,0.00,,,0.00,WUHU21423XXSP,2013-08-04 13:29:00,
2013-08-04 09:35:00,73.8,13.9,29.95,ENE,67,0.0,3.4,10,0.00,,,0.00,WUHU21423XXSP,2013-08-04 13:35:00,
2013-08-04 09:42:00,74.5,14.4,29.95,East,90,0.0,3.4,11,0.00,,,0.00,WUHU21423XXSP,2013-08-04 13:42:00,
2013-08-04 09:48:00,74.8,17.9,29.95,ENE,67,0.0,0.0,12,0.00,,,0.00,WUHU21423XXSP,2013-08-04 13:48:00,
2013-08-04 09:54:00,74.8,27.9,29.95,ENE,67,7.8,7.8,18,0.00,,,0.00,WUHU21423XXSP,2013-08-04 13:54:00,
2013-08-04 10:01:00,74.1,27.3,29.95,ENE,67,0.0,7.8,21,0.00,,,0.00,WUHU21423XXSP,2013-08-04 14:01:00,
2013-08-04 10:07:00,75.2,26.5,29.95,East,90,0.0,0.0,17,0.00,,,0.00,WUHU21423XXSP,2013-08-04 14:07:00,
2013-08-04 10:14:00,75.6,35.9,29.95,East,90,0.0,0.0,24,0.00,,,0.00,WUHU21423XXSP,2013-08-04 14:14:00,
2013-08-04 10:20:00,75.7,39.1,29.95,ESE,112,0.0,2.0,27,0.00,,,0.00,WUHU21423XXSP,2013-08-04 14:20:00,
2013-08-04 10:26:00,75.9,39.3,29.95,East,90,0.0,2.0,27,0.00,,,0.00,WUHU21423XXSP,2013-08-04 14:26:00,
2013-08-04 10:33:00,76.8,46.2,29.96,ESE,112,0.0,0.0,34,0.00,,,0.00,WUHU21423XXSP,2013-08-04 14:33:00,
2013-08-04 10:40:00,77.4,51.8,29.96,ESE,112,1.3,1.3,41,0.00,,,0.00,WUHU21423XXSP,2013-08-04 14:40:00,
2013-08-04 10:46:00,77.4,51.8,29.96,East,90,2.7,2.7,41,0.00,,,0.00,WUHU21423XXSP,2013-08-04 14:46:00,
2013-08-04 10:52:00,77.0,52.1,29.96,SE,135,0.0,2.7,42,0.00,,,0.00,WUHU21423XXSP,2013-08-04 14:52:00,
2013-08-04 10:59:00,77.7,53.1,29.96,ENE,67,0.0,1.6,43,0.00,,,0.00,WUHU21423XXSP,2013-08-04 14:59:00,
2013-08-04 11:05:00,78.6,55.4,29.96,East,90,0.0,0.0,45,0.00,,,0.00,WUHU21423XXSP,2013-08-04 15:05:00,
2013-08-04 11:11:00,78.6,55.4,29.96,ESE,112,4.3,4.3,47,0.00,,,0.00,WUHU21423XXSP,2013-08-04 15:11:00,
2013-08-04 11:17:00,78.1,58.0,29.96,NE,45,2.2,4.3,50,0.00,,,0.00,WUHU21423XXSP,2013-08-04 15:17:00,
2013-08-04 11:24:00,78.6,57.3,29.96,WSW,247,1.6,4.3,48,0.00,,,0.00,WUHU21423XXSP,2013-08-04 15:24:00,
2013-08-04 11:31:00,78.8,57.9,29.96,West,270,3.6,3.6,48,0.00,,,0.00,WUHU21423XXSP,2013-08-04 15:31:00,
2013-08-04 11:37:00,79.7,58.2,29.96,ENE,67,1.3,3.6,48,0.00,,,0.00,WUHU21423XXSP,2013-08-04 15:37:00,
2013-08-04 11:43:00,80.4,58.9,29.96,SSE,157,0.0,3.6,48,0.00,,,0.00,WUHU21423XXSP,2013-08-04 15:43:00,
2013-08-04 11:50:00,80.4,60.3,29.97,NE,45,2.5,3.1,49,0.00,,,0.00,WUHU21423XXSP,2013-08-04 15:50:00,
2013-08-04 11:56:00,80.4,60.1,29.97,NE,45,6.9,6.9,50,0.00,,,0.00,WUHU21423XXSP,2013-08-04 15:56:00,
2013-08-04 12:03:00,80.4,59.6,29.97,ENE,67,4.3,6.9,49,0.00,,,0.00,WUHU21423XXSP,2013-08-04 16:03:00,
2013-08-04 12:09:00,80.4,60.1,29.97,ENE,67,4.3,4.3,50,0.00,,,0.00,WUHU21423XXSP,2013-08-04 16:09:00,
2013-08-04 12:16:00,80.4,60.1,29.97,NE,45,3.8,6.5,50,0.00,,,0.00,WUHU21423XXSP,2013-08-04 16:16:00,
2013-08-04 12:22:00,80.6,60.3,29.96,ESE,112,2.9,6.5,50,0.00,,,0.00,WUHU21423XXSP,2013-08-04 16:22:00,
2013-08-04 12:28:00,80.4,60.1,29.96,ENE,67,2.9,2.9,50,0.00,,,0.00,WUHU21423XXSP,2013-08-04 16:28:00,
2013-08-04 12:35:00,80.2,60.5,29.96,East,90,5.8,6.0,51,0.00,,,0.00,WUHU21423XXSP,2013-08-04 16:35:00,
2013-08-04 12:41:00,80.1,60.3,29.96,NE,45,0.0,6.0,51,0.00,,,0.00,WUHU21423XXSP,2013-08-04 16:41:00,
2013-08-04 12:48:00,80.6,60.8,29.96,East,90,4.9,4.9,51,0.00,,,0.00,WUHU21423XXSP,2013-08-04 16:48:00,
2013-08-04 12:54:00,80.8,60.3,29.96,South,180,0.0,4.9,50,0.00,,,0.00,WUHU21423XXSP,2013-08-04 16:54:00,
2013-08-04 13:01:00,80.8,60.3,29.96,ENE,67,2.5,6.0,50,0.00,,,0.00,WUHU21423XXSP,2013-08-04 17:01:00,
2013-08-04 13:07:00,81.7,61.2,29.95,NE,45,0.4,3.1,50,0.00,,,0.00,WUHU21423XXSP,2013-08-04 17:07:00,
2013-08-04 13:13:00,81.5,61.1,29.95,ENE,67,0.0,4.5,50,0.00,,,0.00,WUHU21423XXSP,2013-08-04 17:13:00,
2013-08-04 13:20:00,82.6,62.1,29.95,SE,135,0.0,4.5,50,0.00,,,0.00,WUHU21423XXSP,2013-08-04 17:20:00,
2013-08-04 13:26:00,82.4,62.2,29.95,West,270,3.6,3.6,50,0.00,,,0.00,WUHU21423XXSP,2013-08-04 17:26:00,
2013-08-04 13:33:00,81.0,60.0,29.95,ENE,67,0.0,3.6,49,0.00,,,0.00,WUHU21423XXSP,2013-08-04 17:33:00,
2013-08-04 13:39:00,80.2,59.9,29.95,ENE,67,3.1,3.8,50,0.00,,,0.00,WUHU21423XXSP,2013-08-04 17:39:00,
2013-08-04 13:46:00,80.4,59.5,29.95,ENE,67,0.0,3.8,50,0.00,,,0.00,WUHU21423XXSP,2013-08-04 17:46:00,
2013-08-04 13:52:00,81.3,61.1,29.95,ESE,112,7.4,7.4,50,0.00,,,0.00,WUHU21423XXSP,2013-08-04 17:52:00,
2013-08-04 13:59:00,82.0,61.6,29.95,East,90,5.6,7.4,50,0.00,,,0.00,WUHU21423XXSP,2013-08-04 17:59:00,
2013-08-04 14:05:00,79.9,59.6,29.95,East,90,5.6,5.6,50,0.00,,,0.00,WUHU21423XXSP,2013-08-04 18:05:00,
2013-08-04 14:11:00,79.3,59.6,29.94,ENE,67,0.0,6.0,51,0.00,,,0.00,WUHU21423XXSP,2013-08-04 18:11:00,
2013-08-04 14:18:00,80.6,60.8,29.94,ENE,67,0.0,6.0,51,0.00,,,0.00,WUHU21423XXSP,2013-08-04 18:18:00,
2013-08-04 14:24:00,82.2,61.7,29.93,ENE,67,0.0,1.3,50,0.00,,,0.00,WUHU21423XXSP,2013-08-04 18:24:00,
2013-08-04 14:30:00,81.1,61.2,29.93,East,90,1.6,1.6,50,0.00,,,0.00,WUHU21423XXSP,2013-08-04 18:30:00,
2013-08-04 14:37:00,80.4,60.1,29.93,West,270,0.7,1.6,50,0.00,,,0.00,WUHU21423XXSP,2013-08-04 18:37:00,
2013-08-04 14:43:00,81.3,60.4,29.93,NW,315,2.2,2.2,50,0.00,,,0.00,WUHU21423XXSP,2013-08-04 18:43:00,
2013-08-04 14:50:00,82.6,61.6,29.93,NW,315,0.0,4.5,50,0.00,,,0.00,WUHU21423XXSP,2013-08-04 18:50:00,
2013-08-04 14:56:00,83.8,62.7,29.93,NE,45,0.0,4.5,49,0.00,,,0.00,WUHU21423XXSP,2013-08-04 18:56:00,
2013-08-04 15:03:00,84.0,62.2,29.93,ENE,67,1.1,1.3,49,0.00,,,0.00,WUHU21423XXSP,2013-08-04 19:03:00,
2013-08-04 15:09:00,81.7,60.7,29.93,WNW,292,0.4,2.7,48,0.00,,,0.00,WUHU21423XXSP,2013-08-04 19:09:00,
2013-08-04 15:15:00,80.4,60.1,29.93,NNW,337,0.0,2.7,50,0.00,,,0.00,WUHU21423XXSP,2013-08-04 19:15:00,
2013-08-04 15:22:00,79.9,60.5,29.93,NNW,337,0.0,0.0,51,0.00,,,0.00,WUHU21423XXSP,2013-08-04 19:22:00,
2013-08-04 15:28:00,80.2,59.8,29.93,SSW,202,0.0,0.0,51,0.00,,,0.00,WUHU21423XXSP,2013-08-04 19:28:00,
2013-08-04 15:35:00,82.0,61.6,29.93,NW,315,0.0,0.9,50,0.00,,,0.00,WUHU21423XXSP,2013-08-04 19:35:00,
2013-08-04 15:41:00,83.3,62.8,29.93,SW,225,2.7,2.7,50,0.00,,,0.00,WUHU21423XXSP,2013-08-04 19:41:00,
2013-08-04 15:48:00,83.8,61.9,29.93,ESE,112,3.8,3.8,48,0.00,,,0.00,WUHU21423XXSP,2013-08-04 19:48:00,
2013-08-04 15:54:00,83.5,61.7,29.93,SE,135,0.0,3.8,48,0.00,,,0.00,WUHU21423XXSP,2013-08-04 19:54:00,
2013-08-04 16:01:00,84.4,62.6,29.93,WSW,247,3.1,3.1,48,0.00,,,0.00,WUHU21423XXSP,2013-08-04 20:01:00,
2013-08-04 16:07:00,84.2,62.4,29.93,WSW,247,0.0,3.1,48,0.00,,,0.00,WUHU21423XXSP,2013-08-04 20:07:00,
2013-08-04 16:13:00,83.7,60.6,29.93,ENE,67,8.9,8.9,46,0.00,,,0.00,WUHU21423XXSP,2013-08-04 20:13:00,
2013-08-04 16:20:00,82.0,60.8,29.93,ENE,67,2.9,8.9,48,0.00,,,0.00,WUHU21423XXSP,2013-08-04 20:20:00,
2013-08-04 16:26:00,82.2,61.1,29.92,NE,45,0.0,2.9,49,0.00,,,0.00,WUHU21423XXSP,2013-08-04 20:26:00,
2013-08-04 16:33:00,81.7,60.3,29.93,ENE,67,1.6,4.5,49,0.00,,,0.00,WUHU21423XXSP,2013-08-04 20:33:00,
2013-08-04 16:39:00,80.4,60.4,29.93,ENE,67,0.0,1.6,50,0.00,,,0.00,WUHU21423XXSP,2013-08-04 20:39:00,
2013-08-04 16:45:00,79.9,59.6,29.93,SE,135,0.0,0.0,50,0.00,,,0.00,WUHU21423XXSP,2013-08-04 20:45:00,
2013-08-04 16:52:00,81.1,60.7,29.92,ENE,67,4.7,4.7,50,0.00,,,0.00,WUHU21423XXSP,2013-08-04 20:52:00,
2013-08-04 16:58:00,82.6,62.1,29.93,East,90,2.9,4.7,50,0.00,,,0.00,WUHU21423XXSP,2013-08-04 20:58:00,
2013-08-04 17:05:00,83.8,62.0,29.93,NNW,337,0.0,2.9,48,0.00,,,0.00,WUHU21423XXSP,2013-08-04 21:05:00,
2013-08-04 17:11:00,84.0,62.2,29.92,West,270,0.9,2.7,48,0.00,,,0.00,WUHU21423XXSP,2013-08-04 21:11:00,
2013-08-04 17:18:00,84.0,61.6,29.93,West,270,0.9,2.7,47,0.00,,,0.00,WUHU21423XXSP,2013-08-04 21:18:00,
2013-08-04 17:24:00,84.2,61.2,29.93,ENE,67,4.9,4.9,46,0.00,,,0.00,WUHU21423XXSP,2013-08-04 21:24:00,
2013-08-04 17:30:00,82.0,59.7,29.94,North,0,2.0,4.9,47,0.00,,,0.00,WUHU21423XXSP,2013-08-04 21:30:00,
2013-08-04 17:37:00,80.2,58.7,29.94,SSW,202,0.0,2.9,48,0.00,,,0.00,WUHU21423XXSP,2013-08-04 21:37:00,
2013-08-04 17:43:00,79.2,59.0,29.94,SSW,202,0.0,0.0,50,0.00,,,0.00,WUHU21423XXSP,2013-08-04 21:43:00,
2013-08-04 17:50:00,79.5,59.8,29.93,SSW,202,0.0,0.0,51,0.00,,,0.00,WUHU21423XXSP,2013-08-04 21:50:00,
2013-08-04 17:56:00,81.0,60.6,29.93,SSW,202,0.0,0.0,50,0.00,,,0.00,WUHU21423XXSP,2013-08-04 21:56:00,
2013-08-04 18:03:00,81.5,61.1,29.94,SW,225,0.0,0.0,50,0.00,,,0.00,WUHU21423XXSP,2013-08-04 22:03:00,
2013-08-04 18:09:00,80.4,60.1,29.93,West,270,1.8,1.8,50,0.00,,,0.00,WUHU21423XXSP,2013-08-04 22:09:00,
2013-08-04 18:15:00,80.2,59.9,29.93,NNE,22,0.0,1.8,50,0.00,,,0.00,WUHU21423XXSP,2013-08-04 22:15:00,
2013-08-04 18:22:00,81.3,60.6,29.94,NNE,22,0.0,0.0,50,0.00,,,0.00,WUHU21423XXSP,2013-08-04 22:22:00,
2013-08-04 18:28:00,82.0,61.6,29.94,North,0,0.0,0.0,50,0.00,,,0.00,WUHU21423XXSP,2013-08-04 22:28:00,
2013-08-04 18:35:00,80.8,60.9,29.94,North,0,0.0,0.0,51,0.00,,,0.00,WUHU21423XXSP,2013-08-04 22:35:00,
2013-08-04 18:41:00,79.5,59.8,29.94,WSW,247,0.0,0.0,51,0.00,,,0.00,WUHU21423XXSP,2013-08-04 22:41:00,
2013-08-04 18:47:00,78.6,59.2,29.94,WSW,247,0.0,0.0,51,0.00,,,0.00,WUHU21423XXSP,2013-08-04 22:47:00,
2013-08-04 18:54:00,77.5,58.5,29.94,ENE,67,0.0,1.8,52,0.00,,,0.00,WUHU21423XXSP,2013-08-04 22:54:00,
2013-08-04 19:00:00,76.8,58.0,29.94,NNW,337,0.0,1.8,51,0.00,,,0.00,WUHU21423XXSP,2013-08-04 23:00:00,
2013-08-04 19:06:00,76.8,57.4,29.94,NNW,337,0.0,0.0,51,0.00,,,0.00,WUHU21423XXSP,2013-08-04 23:06:00,
2013-08-04 19:13:00,76.3,55.8,29.94,NNW,337,0.0,0.0,49,0.00,,,0.00,WUHU21423XXSP,2013-08-04 23:13:00,
2013-08-04 19:20:00,75.7,55.3,29.94,NNW,337,0.0,0.0,49,0.00,,,0.00,WUHU21423XXSP,2013-08-04 23:20:00,
2013-08-04 19:26:00,75.2,55.0,29.95,WNW,292,0.0,0.0,49,0.00,,,0.00,WUHU21423XXSP,2013-08-04 23:26:00,
2013-08-04 19:32:00,74.5,54.1,29.95,WNW,292,0.0,0.0,49,0.00,,,0.00,WUHU21423XXSP,2013-08-04 23:32:00,
2013-08-04 19:39:00,73.8,52.8,29.95,WNW,292,0.0,0.0,48,0.00,,,0.00,WUHU21423XXSP,2013-08-04 23:39:00,
2013-08-04 19:45:00,72.7,52.3,29.95,WNW,292,0.0,0.0,47,0.00,,,0.00,WUHU21423XXSP,2013-08-04 23:45:00,
2013-08-04 19:52:00,72.1,50.1,29.96,NNW,337,0.0,0.0,46,0.00,,,0.00,WUHU21423XXSP,2013-08-04 23:52:00,
2013-08-04 19:58:00,71.2,48.1,29.96,NNW,337,0.0,0.0,44,0.00,,,0.00,WUHU21423XXSP,2013-08-04 23:58:00,
2013-08-04 20:05:00,70.3,47.4,29.96,NNW,337,0.0,0.0,43,0.00,,,0.00,WUHU21423XXSP,2013-08-05 00:05:00,
2013-08-04 20:11:00,69.8,47.4,29.96,NNW,337,0.0,0.0,45,0.00,,,0.00,WUHU21423XXSP,2013-08-05 00:11:00,
2013-08-04 20:17:00,69.6,47.4,29.96,NW,315,0.0,0.0,45,0.00,,,0.00,WUHU21423XXSP,2013-08-05 00:17:00,
2013-08-04 20:23:00,69.4,46.5,29.96,SE,135,0.0,0.0,44,0.00,,,0.00,WUHU21423XXSP,2013-08-05 00:23:00,
2013-08-04 20:30:00,68.7,45.6,29.96,SE,135,0.0,0.0,43,0.00,,,0.00,WUHU21423XXSP,2013-08-05 00:30:00,
2013-08-04 20:37:00,68.5,44.5,29.97,SSE,157,0.0,0.0,42,0.00,,,0.00,WUHU21423XXSP,2013-08-05 00:37:00,
2013-08-04 20:43:00,67.6,41.7,29.97,SSE,157,0.0,0.0,39,0.00,,,0.00,WUHU21423XXSP,2013-08-05 00:43:00,
2013-08-04 20:49:00,66.7,39.5,29.98,SSE,157,0.0,0.0,37,0.00,,,0.00,WUHU21423XXSP,2013-08-05 00:49:00,
2013-08-04 20:58:00,65.5,36.2,29.98,SSE,157,0.0,0.0,34,0.00,,,0.00,WUHU21423XXSP,2013-08-05 00:58:00,
2013-08-04 21:04:00,64.9,33.6,29.98,SSE,157,0.0,0.0,31,0.00,,,0.00,WUHU21423XXSP,2013-08-05 01:04:00,
2013-08-04 21:11:00,64.2,30.2,29.98,SSE,157,0.0,0.0,28,0.00,,,0.00,WUHU21423XXSP,2013-08-05 01:11:00,
2013-08-04 21:17:00,64.0,27.1,29.98,SSE,157,0.0,0.0,25,0.00,,,0.00,WUHU21423XXSP,2013-08-05 01:17:00,
2013-08-04 21:23:00,63.7,24.8,29.98,SSE,157,0.0,0.0,23,0.00,,,0.00,WUHU21423XXSP,2013-08-05 01:23:00,
2013-08-04 21:30:00,63.5,21.7,29.99,SSE,157,0.0,0.0,20,0.00,,,0.00,WUHU21423XXSP,2013-08-05 01:30:00,
2013-08-04 21:37:00,63.1,18.3,29.99,SE,135,0.0,0.0,18,0.00,,,0.00,WUHU21423XXSP,2013-08-05 01:37:00,
2013-08-04 21:43:00,63.0,15.0,29.99,SE,135,0.0,0.0,16,0.00,,,0.00,WUHU21423XXSP,2013-08-05 01:43:00,
2013-08-04 21:49:00,62.8,14.9,29.99,SE,135,0.0,0.0,16,0.00,,,0.00,WUHU21423XXSP,2013-08-05 01:49:00,
2013-08-04 21:56:00,62.4,13.0,30.00,SE,135,0.0,0.0,15,0.00,,,0.00,WUHU21423XXSP,2013-08-05 01:56:00,
2013-08-04 22:02:00,62.2,11.3,29.99,SE,135,0.0,0.0,13,0.00,,,0.00,WUHU21423XXSP,2013-08-05 02:02:00,
2013-08-04 22:09:00,61.9,9.5,29.99,SE,135,0.0,0.0,13,0.00,,,0.00,WUHU21423XXSP,2013-08-05 02:09:00,
2013-08-04 22:15:00,61.7,7.8,30.00,SE,135,0.0,0.0,12,0.00,,,0.00,WUHU21423XXSP,2013-08-05 02:15:00,
2013-08-04 22:21:00,61.5,7.6,30.00,ENE,67,2.0,2.0,12,0.00,,,0.00,WUHU21423XXSP,2013-08-05 02:21:00,
2013-08-04 22:28:00,61.7,7.8,30.00,ENE,67,0.0,2.7,12,0.00,,,0.00,WUHU21423XXSP,2013-08-05 02:28:00,
2013-08-04 22:34:00,61.5,7.6,30.01,ENE,67,0.0,2.7,12,0.00,,,0.00,WUHU21423XXSP,2013-08-05 02:34:00,
2013-08-04 22:41:00,61.2,7.5,30.01,ENE,67,0.0,0.0,12,0.00,,,0.00,WUHU21423XXSP,2013-08-05 02:41:00,
2013-08-04 22:47:00,61.2,7.3,30.01,ENE,67,0.0,0.0,12,0.00,,,0.00,WUHU21423XXSP,2013-08-05 02:47:00,
2013-08-04 22:54:00,61.0,7.2,30.01,ENE,67,0.0,0.0,13,0.00,,,0.00,WUHU21423XXSP,2013-08-05 02:54:00,
2013-08-04 23:00:00,61.0,8.8,30.01,ENE,67,0.0,0.0,13,0.00,,,0.00,WUHU21423XXSP,2013-08-05 03:00:00,
2013-08-04 23:08:00,60.6,8.5,30.01,ENE,67,0.0,0.0,13,0.00,,,0.00,WUHU21423XXSP,2013-08-05 03:08:00,
2013-08-04 23:13:00,60.4,8.3,30.01,ENE,67,0.0,0.0,13,0.00,,,0.00,WUHU21423XXSP,2013-08-05 03:13:00,
2013-08-04 23:19:00,60.1,8.0,30.02,ENE,67,0.0,0.0,13,0.00,,,0.00,WUHU21423XXSP,2013-08-05 03:19:00,
2013-08-04 23:25:00,59.7,7.7,30.01,ENE,67,0.0,0.0,13,0.00,,,0.00,WUHU21423XXSP,2013-08-05 03:25:00,
2013-08-04 23:32:00,59.5,9.1,30.02,ENE,67,0.0,0.0,14,0.00,,,0.00,WUHU21423XXSP,2013-08-05 03:32:00,
2013-08-04 23:39:00,59.7,9.3,30.01,ENE,67,0.0,0.0,14,0.00,,,0.00,WUHU21423XXSP,2013-08-05 03:39:00,
2013-08-04 23:45:00,59.7,9.3,30.02,ENE,67,0.0,0.0,14,0.00,,,0.00,WUHU21423XXSP,2013-08-05 03:45:00,
2013-08-04 23:51:00,59.5,9.3,30.01,ENE,67,0.0,0.0,14,0.00,,,0.00,WUHU21423XXSP,2013-08-05 03:51:00,
2013-08-04 23:58:00,59.4,9.0,30.02,ENE,67,0.0,0.0,14,0.00,,,0.00,WUHU21423XXSP,2013-08-05 03:58:00,